User: anonymous
Location: Fort Wayne
(41.1310°N, 85.1290°W)
Time: 05:35:23
(UTC-04:00)
Language:

Cosmos 2227 Rocket - Orbit

View from above orbital plane
View from above orbital plane
View from above satellite
View from above satellite

Ground track
Ground track

The orbit data is extracted from the following two-line orbital elements,

1 22285U 92093B   14106.19841315 -.00000210  00000-0 -84264-4 0  2802
2 22285 071.0204 121.3253 0001750 081.4105 278.7216 14.14907335 98731
Epoch (UTC): 16 April 2014 04:45:42
Eccentricity: 0.0001750
inclination: 71.0204°
perigee height: 841 km
apogee height: 844 km
right ascension of ascending node: 121.3253°
argument of perigee: 81.4105°
revolutions per day: 14.14907335
mean anomaly at epoch: 278.7216°
orbit number at epoch: 9873

The dashed part of the orbit path shows where the satellite is in the earth's shadow,  

DLR